Lihue, HI

1:46 AM HST on July 21, 2017 (GMT -1000)
Lihue

Weather History for PHLI - September, 2015

Change the Weather History Date:

Saturday, September 12, 2015

  Actual Average Record
Temperature  
Mean Temperature 78 °F 80 °F  
Max Temperature 83 °F 85 °F 88 °F (1959)
Min Temperature 73 °F 74 °F 66 °F (1981)
Degree Days  
Heating Degree Days 0 0  
Month to date heating degree days 0 0  
Since 1 July heating degree days 0 0  
Cooling Degree Days 13 15  
Month to date cooling degree days 62 180  
Year to date cooling degree days 2021 2706  
Growing Degree Days 28 (Base 50)    
Moisture  
Dew Point 75 °F    
Average Humidity 89    
Maximum Humidity 100    
Minimum Humidity 75    
Precipitation  
Precipitation 2.37 in 0.06 in 2.37 in (2015)
Month to date precipitation 3.81 0.71  
Year to date precipitation 11.52 22.16  
Snow  
Snow 0.00 in - - ()
Month to date snowfall 0.0  
Since 1 July snowfall 0.0  
Since 1 September snowfall 0.0  
Snow Depth -    
Sea Level Pressure  
Sea Level Pressure 29.87 in    
Wind  
Wind Speed 7 mph (SE)    
Max Wind Speed 17 mph    
Max Gust Speed 23 mph    
Visibility 8 miles    
Events Rain , Thunderstorm    
T = Trace of Precipitation, MM = Missing Value Source: NWS Daily Summary

Daily Weather History Graph

Daily Weather History Graph

Search for Another Location

Airport or City:

Trip Planner

Search our weather history database for the weather conditions in past years. The results will help you decide how hot, cold, wet, or windy it might be!

Date:

Astronomy

Sep. 12, 2015 Rise Set
Actual Time 6:23 AM HST 6:43 PM HST
Civil Twilight 6:01 AM HST 7:05 PM HST
Nautical Twilight 5:34 AM HST 7:31 PM HST
Astronomical Twilight 5:08 AM HST 7:58 PM HST
Moon 5:58 AM HST (9/12) 6:33 PM HST (9/12)
Length of Visible Light 13h 04m
Length of Day
12h 20m
Waning Crescent, 0% of the Moon is Illuminated
Sep 12
Waning Crescent
Sep 12
New
Sep 20
First Quarter
Sep 27
Full
Oct 4
Last Quarter

Hourly Weather History & Observations

Time (HST) Temp. Heat Index Dew Point Humidity Pressure Visibility Wind Dir Wind Speed Gust Speed Precip Events Conditions
12:02 AM 78.8 °F - 73.4 °F 83% 29.87 in 9.0 mi SSW 9.2 mph - N/A   Overcast
12:32 AM 78.8 °F - 75.2 °F 89% 29.86 in 10.0 mi SSW 8.1 mph - 0.00 in Thunderstorm Thunderstorm
12:53 AM 79.0 °F - 75.0 °F 88% 29.85 in 10.0 mi South 8.1 mph - 0.00 in Thunderstorm Thunderstorm
1:43 AM 78.8 °F - 75.2 °F 89% 29.85 in 10.0 mi SW 3.5 mph - N/A   Overcast
1:53 AM 79.0 °F - 75.0 °F 88% 29.84 in 10.0 mi Calm Calm - N/A   Overcast
2:00 AM 78.8 °F - 75.2 °F 89% 29.84 in 10.0 mi Calm Calm - N/A   Overcast
2:53 AM 78.1 °F - 75.0 °F 90% 29.83 in 10.0 mi North 3.5 mph - N/A Thunderstorm Thunderstorm
3:35 AM 77.0 °F - 75.2 °F 94% 29.86 in 1.8 mi South 16.1 mph 23.0 mph 0.07 in Rain , Thunderstorm Heavy Thunderstorms and Rain
3:53 AM 75.0 °F - 73.9 °F 96% 29.85 in 1.2 mi SE 11.5 mph - 0.90 in Rain , Thunderstorm Heavy Thunderstorms and Rain
3:59 AM 75.2 °F - 75.2 °F 100% 29.86 in 1.2 mi SE 8.1 mph - 0.21 in Rain , Thunderstorm Heavy Thunderstorms and Rain
4:12 AM 75.2 °F - 73.4 °F 94% 29.85 in 3.0 mi SE 5.8 mph - 0.41 in Rain , Thunderstorm Heavy Thunderstorms and Rain
4:53 AM 75.9 °F - 75.0 °F 97% 29.84 in 7.0 mi South 4.6 mph - 0.48 in Thunderstorm Thunderstorm
4:59 AM 75.2 °F - 75.2 °F 100% 29.84 in 8.0 mi South 3.5 mph - N/A Thunderstorm Thunderstorm
5:53 AM 77.0 °F - 75.0 °F 94% 29.85 in 10.0 mi SSW 4.6 mph - N/A Thunderstorm Thunderstorm
6:53 AM 75.0 °F - 73.9 °F 96% 29.88 in 1.8 mi SE 16.1 mph - 0.15 in Rain , Thunderstorm Heavy Thunderstorms and Rain
7:06 AM 73.4 °F - 71.6 °F 94% 29.89 in 0.8 mi SE 4.6 mph - 0.36 in Rain , Thunderstorm Heavy Thunderstorms and Rain
7:14 AM 73.4 °F - 71.6 °F 94% 29.89 in 2.0 mi SE 8.1 mph - 0.42 in Rain , Thunderstorm Heavy Thunderstorms and Rain
7:22 AM 73.4 °F - 73.4 °F 100% 29.89 in 4.0 mi South 5.8 mph - 0.44 in Rain , Thunderstorm Thunderstorms and Rain
7:31 AM 73.4 °F - 73.4 °F 100% 29.88 in 1.8 mi South 4.6 mph - 0.48 in Rain , Thunderstorm Heavy Thunderstorms and Rain
7:53 AM 75.0 °F - 73.9 °F 96% 29.88 in 1.2 mi South 3.5 mph - 0.79 in Rain , Thunderstorm Thunderstorms and Rain
7:55 AM 75.2 °F - 73.4 °F 94% 29.89 in 2.5 mi SSW 3.5 mph - 0.00 in Rain , Thunderstorm Thunderstorms and Rain
8:02 AM 75.2 °F - 73.4 °F 94% 29.89 in 5.0 mi SSW 4.6 mph - 0.01 in Rain , Thunderstorm Light Thunderstorms and Rain
8:53 AM 75.9 °F - 75.0 °F 97% 29.87 in 10.0 mi Calm Calm - 0.05 in   Overcast
9:53 AM 80.1 °F 85.8 °F 77.0 °F 90% 29.90 in 10.0 mi SE 6.9 mph - N/A   Mostly Cloudy
10:00 AM 80.6 °F 87.1 °F 77.0 °F 89% 29.90 in 10.0 mi SE 13.8 mph - N/A   Mostly Cloudy
10:27 AM 80.6 °F 86.2 °F 75.2 °F 84% 29.90 in 10.0 mi SE 11.5 mph - N/A   Overcast
10:53 AM 81.0 °F 87.3 °F 75.9 °F 85% 29.89 in 10.0 mi SE 13.8 mph - N/A   Scattered Clouds
11:26 AM 80.6 °F 87.1 °F 77.0 °F 89% 29.90 in 10.0 mi ESE 10.4 mph - N/A   Mostly Cloudy
11:33 AM 80.6 °F 87.1 °F 77.0 °F 89% 29.90 in 10.0 mi ESE 9.2 mph - N/A   Scattered Clouds
11:53 AM 82.0 °F 89.4 °F 75.9 °F 82% 29.89 in 10.0 mi ESE 9.2 mph - N/A   Mostly Cloudy
12:53 PM 82.0 °F 89.4 °F 75.9 °F 82% 29.87 in 10.0 mi ESE 10.4 mph - N/A   Scattered Clouds
1:53 PM 82.0 °F 89.4 °F 75.9 °F 82% 29.85 in 10.0 mi ESE 9.2 mph - N/A   Mostly Cloudy
2:00 PM 82.4 °F 89.5 °F 75.2 °F 79% 29.86 in 10.0 mi SE 9.2 mph - N/A   Clear
2:20 PM 80.6 °F 86.2 °F 75.2 °F 84% 29.85 in 10.0 mi SSW 9.2 mph - N/A   Mostly Cloudy
2:27 PM 80.6 °F 86.2 °F 75.2 °F 84% 29.85 in 10.0 mi South 5.8 mph - N/A   Overcast
2:53 PM 80.1 °F 85.4 °F 75.9 °F 87% 29.83 in 10.0 mi South 4.6 mph - 0.00 in   Overcast
3:53 PM 81.0 °F 87.3 °F 75.9 °F 85% 29.82 in 10.0 mi SE 3.5 mph - N/A   Overcast
4:53 PM 81.0 °F 87.3 °F 75.9 °F 85% 29.83 in 10.0 mi ESE 5.8 mph - N/A   Mostly Cloudy
5:53 PM 81.0 °F 87.3 °F 75.9 °F 85% 29.83 in 10.0 mi ESE 5.8 mph - N/A   Mostly Cloudy
6:53 PM 81.0 °F 86.7 °F 75.0 °F 82% 29.84 in 10.0 mi ESE 8.1 mph - N/A   Partly Cloudy
7:53 PM 81.0 °F 86.7 °F 75.0 °F 82% 29.87 in 10.0 mi East 10.4 mph - N/A   Partly Cloudy
8:53 PM 81.0 °F 86.7 °F 75.0 °F 82% 29.91 in 10.0 mi ESE 6.9 mph - N/A   Mostly Cloudy
9:53 PM 81.0 °F 87.3 °F 75.9 °F 85% 29.92 in 10.0 mi ESE 6.9 mph - N/A   Overcast
10:53 PM 80.1 °F 85.4 °F 75.9 °F 87% 29.92 in 10.0 mi East 6.9 mph - N/A   Clear
11:33 PM 80.6 °F 86.2 °F 75.2 °F 84% 29.93 in 10.0 mi East 9.2 mph - N/A   Mostly Cloudy
11:41 PM 80.6 °F 86.2 °F 75.2 °F 84% 29.92 in 10.0 mi East 10.4 mph - N/A   Partly Cloudy
11:53 PM 80.1 °F 85.1 °F 75.0 °F 85% 29.91 in 10.0 mi East 9.2 mph - N/A   Partly Cloudy